Regional Weather Roundup
Issued by NWS

Home | Current Version | Previous Version | Text Only | Print | Product List | Glossary On
Versions: 1 2 3 4 5 6 7 8 9 10 11 12 13 14 15 16 17 18 19 20 21 22 23 24 25 26 27 28 29 30 31 32 33 34 35 36 37 38 39 40 41 42 43 44 45 46 47 48 49 50
000
ASPQ40 PGUM 291912
RWRPQ
WEATHER ROUNDUP FOR THE MARIANAS AND MICRONESIA
NATIONAL WEATHER SERVICE TIYAN GU
500 AM CHST TUE MAY 30 2017

GUZ001>004-292000-
MARIANA ISLANDS-

CITY           SKY/WX    TMP DP  RH WIND       PRES   REMARKS
GUAM AIRPORT   CLEAR     79  79 100 E5        29.88S
ANDERSEN AFB   PTCLDY    79  75  89 E8        29.89S
ROTA AIRPORT   NOT AVBL
TINIAN AP      NOT AVBL
SAIPAN AP      MOCLDY    82  79  89 N3        29.88R HX  93

$$

PMZ161-292000-
REPUBLIC OF PALAU-

CITY           SKY/WX    TMP DP  RH WIND       PRES   REMARKS
KOROR AP       NOT AVBL
KOROR WSO      CLOUDY    81  77  89 SE8       29.81F

$$

PMZ171>174-292000-
FEDERATED STATES OF MICRONESIA-

CITY           SKY/WX    TMP DP  RH WIND       PRES   REMARKS
YAP AIRPORT    MOCLDY    79  77  94 VRB3      29.83R
CHUUK AP       CLOUDY    82  79  89 NE8       29.80R HX  93
POHNPEI AP     NOT AVBL
POHNPEI WSO    CLOUDY    82  77  83 E13       29.83R HX  91
KOSRAE AP      NOT AVBL

$$

PMZ181-292000-
REPUBLIC OF THE MARSHALL ISLANDS-

CITY           SKY/WX    TMP DP  RH WIND       PRES   REMARKS
KWAJALEIN AP   PTCLDY    81  77  89 E13       29.83S
MAJURO AP      NOT AVBL
MAJURO WSO     CLOUDY    81  77  89 E7        29.82R

$$




USA.gov is the U.S. government's official web portal to all federal, state and local government web resources and services.